Torna al catalogo

FENGYUN 1C DEB

AttivoSSO
NORAD 31049·DEBRIS·🇨🇳 China

Lanciato May 10, 1999 da Taiyuan Satellite Launch Center

Loading…

Prossimi Passaggi (prossime 24 ore)

TLE

AggiornatoSource: Space-Track

Epoca: Sep 14, 2026, 05:49 UTC

1 31049U 99025BET 26257.24250259  .00000526  00000-0  35200-3 0  9999
2 31049  98.8032 264.4934 0052320  79.6893 281.0168 14.04498232649827

Traccia FENGYUN 1C DEB in tempo reale con AllMySat

Download on the App Store